Skip Page Navigation
NASA JPL Caltech
NASA Logo - Jet Propulsion Laboratory + View the NASA Portal
+ Center for Near-Earth Object Studies
JPL Home Earth Solar System Stars & Galaxies Technology
JPL Solar System Dynamics
BODIES ORBITS EPHEMERIDES TOOLS PHYSICAL DATA DISCOVERY FAQ SITE MAP
IMPORTANT: The SSD Announcement email list is now available. Major changes are coming in the near future, including possible hostname and/or URL changes. To be notified of such changes, subscribe to this email list.

Please visit this page for more details.


JPL Small-Body Database Browser
Search: [ help ]  
357977 (2006 BX168)
Classification: Main-belt Asteroid          SPK-ID: 2357977
Ephemeris | Orbit Diagram | Orbital Elements | Mission Design | Physical Parameters | Discovery Circumstances ]

[ show orbit diagram ]
Orbital Elements at Epoch 2458600.5 (2019-Apr-27.0) TDB
Reference: JPL 7 (heliocentric ecliptic J2000)
 Element Value Uncertainty (1-sigma)   Units 
e .08540169681723896 7.9847e-08  
a 2.324352972909283 2.069e-08 au
q 2.125849285020637 1.887e-07 au
i 6.721728057782561 1.2113e-05 deg
node 337.4365601165788 6.4617e-05 deg
peri 129.6231728729442 9.9485e-05 deg
M 302.5343513563982 7.8242e-05 deg
tp 2458807.112864746595
(2019-Nov-19.61286475)
0.00028286 TDB
period 1294.349460319816
3.54
1.7282e-05
4.732e-08
d
yr
n .2781319968341849 3.7137e-09 deg/d
Q 2.52285666079793 2.2457e-08 au
  Orbit Determination Parameters
   # obs. used (total)      76  
   data-arc span      7119 days (19.49 yr)  
   first obs. used      1999-03-20  
   last obs. used      2018-09-15  
   planetary ephem.      DE431  
   SB-pert. ephem.      SB431-N16  
   condition code      0  
   norm. resid. RMS      .57267  
   source      ORB  
   producer      Otto Matic  
   solution date      2018-Oct-03 12:56:23  

Additional Information
 Earth MOID = 1.14968 au 
 Jupiter MOID = 2.5544 au 
 T_jup = 3.561 
[ show covariance matrix ]

Ephemeris | Orbit Diagram | Orbital Elements | Mission Design | Physical Parameters | Discovery Circumstances ]

Physical Parameter Table
Parameter Symbol Value Units Sigma Reference Notes
absolute magnitude H 17.9   n/a MPO455584  

357977 (2006 BX168)          Discovered 2006-Jan-26 by Mt. Lemmon Survey at Mount Lemmon
Reference: 20130327/Numbers.arcLast Updated: 2013-03-29

Alternate Designations
 2006 BX168 = 1999 FO67 
Ephemeris | Orbit Diagram | Orbital Elements | Mission Design | Physical Parameters | Discovery Circumstances ]
ABOUT SSD CREDITS/AWARDS PRIVACY/COPYRIGHT GLOSSARY LINKS
FirstGov 2019-Dec-11 20:36 UT
(server date/time)  
NASA Home Page
Site Manager:   Ryan S. Park
Webmaster  Alan B. Chamberlin